TimeMST,TemperatureF,Dew PointF,Humidity,Sea Level PressureIn,VisibilityMPH,Wind Direction,Wind SpeedMPH,Gust SpeedMPH,PrecipitationIn,Events,Conditions,WindDirDegrees,DateUTC
12:53 AM,28.0,24.1,85,29.98,10.0,NW,6.9,-,N/A,,Clear,310,2013-01-19 07:53:00
1:53 AM,28.9,23.0,78,30.01,10.0,NW,12.7,-,N/A,,Clear,310,2013-01-19 08:53:00
2:53 AM,28.0,21.9,78,30.04,10.0,NW,13.8,-,N/A,,Partly Cloudy,320,2013-01-19 09:53:00
3:53 AM,28.9,23.0,78,30.05,10.0,WNW,10.4,-,N/A,,Scattered Clouds,300,2013-01-19 10:53:00
4:53 AM,30.0,24.1,79,30.09,10.0,NW,13.8,-,N/A,,Overcast,320,2013-01-19 11:53:00
5:53 AM,30.0,24.1,79,30.17,10.0,NW,19.6,-,N/A,,Overcast,320,2013-01-19 12:53:00
6:14 AM,26.6,21.2,80,30.11,9.0,North,21.9,28.8,N/A,,Overcast,360,2013-01-19 13:14:00
6:22 AM,24.8,21.2,86,30.12,9.0,North,21.9,-,N/A,,Overcast,360,2013-01-19 13:22:00
6:53 AM,23.0,18.0,81,30.23,10.0,NNW,16.1,-,N/A,,Overcast,340,2013-01-19 13:53:00
7:53 AM,21.0,16.0,81,30.29,10.0,North,13.8,-,N/A,,Overcast,350,2013-01-19 14:53:00
8:53 AM,19.0,12.9,77,30.35,10.0,NNW,9.2,-,N/A,,Overcast,330,2013-01-19 15:53:00
9:04 AM,19.4,12.2,74,30.25,10.0,North,13.8,-,N/A,,Overcast,350,2013-01-19 16:04:00
9:53 AM,18.0,10.9,74,30.39,10.0,NNW,18.4,-,N/A,,Overcast,340,2013-01-19 16:53:00
10:53 AM,18.0,10.0,71,30.43,10.0,NNW,12.7,-,N/A,,Overcast,330,2013-01-19 17:53:00
11:53 AM,18.0,10.0,71,30.42,10.0,NNW,15.0,-,N/A,,Overcast,330,2013-01-19 18:53:00
12:32 PM,17.6,10.4,73,30.30,10.0,North,11.5,-,N/A,,Overcast,360,2013-01-19 19:32:00
12:49 PM,17.6,10.4,73,30.31,10.0,NNW,10.4,-,N/A,,Overcast,340,2013-01-19 19:49:00
12:53 PM,18.0,10.0,71,30.42,10.0,North,11.5,-,N/A,,Overcast,350,2013-01-19 19:53:00
1:53 PM,18.0,10.0,71,30.40,10.0,NNW,6.9,-,N/A,,Overcast,330,2013-01-19 20:53:00
2:53 PM,18.0,9.0,68,30.40,10.0,WNW,5.8,-,N/A,,Overcast,300,2013-01-19 21:53:00
3:53 PM,17.1,9.0,71,30.39,10.0,NW,4.6,-,N/A,,Overcast,320,2013-01-19 22:53:00
4:53 PM,17.1,9.0,71,30.36,10.0,Calm,Calm,-,N/A,,Overcast,0,2013-01-19 23:53:00
5:53 PM,18.0,10.0,71,30.36,10.0,Calm,Calm,-,N/A,,Overcast,0,2013-01-20 00:53:00
6:53 PM,18.0,10.0,71,30.35,10.0,NE,3.5,-,N/A,,Overcast,40,2013-01-20 01:53:00
7:53 PM,17.1,10.0,74,30.35,10.0,East,4.6,-,N/A,,Overcast,90,2013-01-20 02:53:00
8:53 PM,16.0,10.9,81,30.33,10.0,ESE,5.8,-,N/A,,Overcast,110,2013-01-20 03:53:00
9:53 PM,15.1,10.0,80,30.33,10.0,East,8.1,-,0.01,,Overcast,100,2013-01-20 04:53:00
10:53 PM,15.1,10.0,80,30.34,5.0,ENE,6.9,-,0.00,Snow,Light Snow,70,2013-01-20 05:53:00
11:33 PM,15.8,10.4,79,30.21,2.5,ENE,5.8,-,0.00,Snow,Light Snow,60,2013-01-20 06:33:00
11:53 PM,15.1,10.9,84,30.36,3.0,NE,5.8,-,0.00,Snow,Light Snow,50,2013-01-20 06:53:00